CMA-CGM Fort Saint Pierre — FQFM — position and weather

sailwx.info

Track history (hours):
 
Tides and Currents Weather Stations Pressure Air Temp Water Temp Dewpoint Dewpoint Depression Visibility Wind Speed Wind Dir Waves Ship Positions

CMA-CGM Fort Saint Pierre

Last reported at 2016-May-11 09:07 UTC. Time now 2016-May-31 02:05 UTC.
Position N 49°29' W 004°55'.
Warning: this ship's position is 19 days out of date.

Length 197 m; beam 30 m.

Type: Ship (hazmat cat A). MMSI: 226328000.

Date/timePositionNaut miles runAvg speedWind from/ knotsBaromVisibWave heightAir tempDewpointWater temp
2016-May-11 09:07N 49°29' W 004°55'1217.0
2016-May-11 08:26N 49°34' W 004°38'1314.4
2016-May-11 07:33N 49°38' W 004°20'1614.7
2016-May-11 06:27N 49°44' W 003°56'1415.8
2016-May-11 05:33N 49°49' W 003°36'1716.9
2016-May-11 04:33N 49°56' W 003°12'1717.4
2016-May-11 03:33N 50°02' W 002°47'5814.3
2016-May-10 23:31N 49°52' W 001°18'1212.0
2016-May-10 22:33N 49°47' W 001°02'1312.6
2016-May-10 21:33N 49°41' W 000°45'1414.0
2016-May-10 20:33N 49°36' W 000°25'1615.7
2016-May-10 19:34N 49°30' W 000°02'8 8.2
2016-May-10 18:33N 49°27' E 000°10'0 0.0
2016-May-10 17:33N 49°27' E 000°10'0 0.0
2016-May-10 16:33N 49°27' E 000°10'0 0.0
2016-May-10 15:33N 49°27' E 000°10'0 0.0
2016-May-10 14:33N 49°27' E 000°10'0 0.0
2016-May-10 13:33N 49°27' E 000°10'0 0.0
2016-May-10 12:33N 49°27' E 000°10'0 0.0
2016-May-10 11:33N 49°27' E 000°10'3 2.8
2016-May-10 10:33N 49°28' E 000°06'1211.7
2016-May-10 09:33N 49°33' W 000°11'1211.7
2016-May-10 08:33N 49°44' W 000°10'1312.6
2016-May-10 07:33N 49°57' W 000°08'1313.3
2016-May-10 06:33N 50°10' W 000°14'1313.2
2016-May-10 05:33N 50°23' W 000°10'1110.7
2016-May-10 04:33N 50°29' E 000°03'1313.1
2016-May-10 03:32N 50°33' E 000°23'2913.2
2016-May-10 01:22N 50°48' E 001°02'1113.0
2016-May-10 00:33N 50°54' E 001°15'1312.8
2016-May-09 23:34N 51°03' E 001°30'1313.1
2016-May-09 22:33N 51°12' E 001°44'1313.1
2016-May-09 21:33N 51°23' E 001°57'1414.3
2016-May-09 20:34N 51°21' E 002°20'2423.9
2016-May-09 19:33N 51°23' E 002°58'8 8.1
2016-May-09 18:33N 51°24' E 003°11'1616.0
2016-May-09 17:34N 51°26' E 003°36'1313.3
2016-May-09 16:33N 51°25' E 003°58'1010.4
2016-May-09 15:33N 51°22' E 004°14'4 4.2
2016-May-09 14:33N 51°18' E 004°16'0 0.0
2016-May-09 13:33N 51°18' E 004°16'0 0.0
2016-May-09 12:30N 51°18' E 004°16'0 0.0
2016-May-09 11:27N 51°18' E 004°16'0 0.0
2016-May-09 10:33N 51°18' E 004°16'0 0.0
2016-May-09 09:33N 51°18' E 004°16'0 0.0
2016-May-09 08:33N 51°18' E 004°16'0 0.0
2016-May-09 07:33N 51°18' E 004°16'0 0.0
2016-May-09 06:33N 51°18' E 004°16'0 0.0
2016-May-09 05:30N 51°18' E 004°16'0 0.0
2016-May-09 04:30N 51°18' E 004°16'0 0.0
2016-May-09 03:33N 51°18' E 004°16'1 1.0
2016-May-09 02:33N 51°19' E 004°16'8 7.7
2016-May-09 01:33N 51°22' E 004°05'8 8.4
2016-May-09 00:33N 51°21' E 003°52'1111.2
2016-May-08 23:33N 51°26' E 003°36'1212.2
2016-May-08 22:33N 51°24' E 003°16'1110.6
2016-May-08 21:33N 51°28' E 003°00'1717.0
2016-May-08 20:33N 51°43' E 003°12'8 7.5
2016-May-08 19:29N 51°51' E 003°16'4714.9
2016-May-08 16:21N 52°37' E 003°31'1416.6
2016-May-08 15:32N 52°47' E 003°45'2713.8
2016-May-08 13:33N 53°07' E 004°17'1413.3
2016-May-08 12:29N 53°18' E 004°30'1313.3
2016-May-08 11:28N 53°29' E 004°43'1313.6
2016-May-08 10:33N 53°34' E 005°03'1413.6
2016-May-08 09:33N 53°38' E 005°24'1313.1
2016-May-08 08:33N 53°42' E 005°45'1313.0
2016-May-08 07:33N 53°47' E 006°06'1313.1
2016-May-08 06:33N 53°50' E 006°27'1313.2
2016-May-08 05:34N 53°54' E 006°49'1313.4
2016-May-08 04:33N 53°57' E 007°11'1313.4
2016-May-08 03:33N 54°01' E 007°33'1313.2
2016-May-08 02:33N 54°02' E 007°55'1313.3
2016-May-08 01:33N 54°00' E 008°18'1515.0
2016-May-08 00:34N 53°54' E 008°41'1211.9
2016-May-07 23:33N 53°51' E 009°01'1010.4
2016-May-07 22:33N 53°51' E 009°18'1414.4
2016-May-07 21:34N 53°39' E 009°31'1212.4
2016-May-07 20:33N 53°33' E 009°49'4 3.8
2016-May-07 19:31N 53°32' E 009°56'0 0.0
2016-May-07 18:31N 53°32' E 009°56'0 0.0
2016-May-07 17:31N 53°32' E 009°56'0 0.0
2016-May-07 16:31N 53°32' E 009°56'0 0.0
2016-May-07 15:31N 53°32' E 009°56'0 0.0
2016-May-07 14:31N 53°32' E 009°56'0 0.0
2016-May-07 13:31N 53°32' E 009°56'0 0.0
2016-May-07 12:31N 53°32' E 009°56'0 0.0
2016-May-07 11:31N 53°32' E 009°56'0 0.0
2016-May-07 10:31N 53°32' E 009°56'0 0.0
2016-May-07 09:31N 53°32' E 009°56'0 0.0
2016-May-07 08:31N 53°32' E 009°56'0 0.0
2016-May-07 07:32N 53°32' E 009°56'0 0.0
2016-May-07 06:32N 53°32' E 009°56'0 0.0
2016-May-07 05:34N 53°32' E 009°56'4 4.4
2016-May-07 04:34N 53°33' E 009°49'10 9.5
2016-May-07 03:33N 53°37' E 009°34'1110.7
2016-May-07 02:34N 53°46' E 009°24'1212.1
2016-May-07 01:33N 53°53' E 009°07'1413.7
2016-May-07 00:33N 53°52' E 008°44'1515.0
2016-May-06 23:33N 53°59' E 008°22'1312.9
2016-May-06 22:33N 53°58' E 007°60'1111.2
2016-May-06 21:33N 53°56' E 007°41'1413.6
2016-May-06 20:34N 53°53' E 007°19'1414.5
2016-May-06 19:34N 53°50' E 006°55'1414.4
2016-May-06 18:34N 53°46' E 006°31'1514.6
2016-May-06 17:33N 53°42' E 006°07'1514.7
2016-May-06 16:33N 53°37' E 005°44'1514.6
2016-May-06 15:34N 53°33' E 005°20'1514.9
2016-May-06 14:33N 53°28' E 004°57'1413.6
2016-May-06 13:33N 53°20' E 004°39'1414.4
2016-May-06 12:33N 53°07' E 004°27'1414.5
2016-May-06 11:34N 52°54' E 004°17'1514.5
2016-May-06 10:33N 52°42' E 004°03'2814.2
2016-May-06 08:33N 52°14' E 003°53'1211.9
2016-May-06 07:33N 52°02' E 003°54'1414.0
2016-May-06 06:33N 51°56' E 004°14'8 8.1
2016-May-06 05:33N 51°54' E 004°26'0 0.2
2016-May-06 04:32N 51°54' E 004°26'0 0.0
2016-May-06 03:32N 51°54' E 004°26'0 0.0
2016-May-06 02:32N 51°54' E 004°26'0 0.0
2016-May-06 01:32N 51°54' E 004°26'0 0.0
2016-May-06 00:32N 51°54' E 004°26'0 0.0
2016-May-05 23:32N 51°54' E 004°26'0 0.0
2016-May-05 22:32N 51°54' E 004°26'0 0.0
2016-May-05 21:32N 51°54' E 004°26'0 0.0
2016-May-05 20:32N 51°54' E 004°26'0 0.0
2016-May-05 19:32N 51°54' E 004°26'0 0.0
2016-May-05 18:32N 51°54' E 004°26'0 0.0
2016-May-05 17:32N 51°54' E 004°26'0 0.0
2016-May-05 15:32N 51°54' E 004°26'0 0.0
2016-May-05 14:32N 51°54' E 004°26'0 0.0
2016-May-05 13:32N 51°54' E 004°26'0 0.0
2016-May-05 12:32N 51°54' E 004°26'0 0.0
2016-May-05 11:32N 51°54' E 004°26'0 0.0
2016-May-05 10:32N 51°54' E 004°26'0 0.0
2016-May-05 09:32N 51°54' E 004°26'0 0.0
2016-May-05 08:32N 51°54' E 004°26'0 0.0
2016-May-05 07:32N 51°54' E 004°26'0 0.0
2016-May-05 06:32N 51°54' E 004°26'0 0.0
2016-May-05 05:29N 51°54' E 004°26'0 0.0
2016-May-05 04:32N 51°54' E 004°26'0 0.2
2016-May-05 03:33N 51°54' E 004°26'6 6.3
2016-May-05 02:33N 51°54' E 004°16'1110.8
2016-May-05 01:33N 51°60' E 004°01'1212.2
2016-May-05 00:33N 51°59' E 003°41'1111.1
2016-May-04 23:33N 51°55' E 003°24'1212.0
2016-May-04 22:33N 51°52' E 003°05'1312.4
2016-May-04 21:28N 51°47' E 002°45'1112.5
2016-May-04 20:33N 51°40' E 002°31'1514.6
2016-May-04 19:34N 51°29' E 002°15'1615.9
2016-May-04 18:34N 51°18' E 001°57'1515.1
2016-May-04 17:34N 51°07' E 001°41'1514.6
2016-May-04 16:33N 50°55' E 001°26'1312.9
2016-May-04 15:34N 50°43' E 001°22'1413.5
2016-May-04 14:33N 50°33' E 001°07'1413.6
2016-May-04 13:31N 50°27' E 000°48'1414.0
2016-May-04 12:33N 50°23' E 000°27'1414.0
2016-May-04 11:33N 50°21' E 000°05'1414.2
2016-May-04 10:34N 50°18' W 000°16'1414.3
2016-May-04 09:33N 50°14' W 000°38'1816.0
2016-May-04 08:25N 50°10' W 001°05'1517.5
2016-May-04 07:33N 50°05' W 001°28'1818.4
2016-May-04 06:33N 49°60' W 001°55'2018.9
2016-May-04 05:31N 49°55' W 002°25'2018.2
2016-May-04 04:25N 49°49' W 002°55'1517.7
2016-May-04 03:34N 49°44' W 003°17'2117.4
2016-May-04 02:22N 49°37' W 003°47'3216.8
2016-May-04 00:29N 49°30' W 004°34'1916.3
2016-May-03 23:19N 49°24' W 005°02'1216.0
2016-May-03 22:33N 49°20' W 005°20'1615.5
2016-May-03 21:32N 49°16' W 005°43'1515.2
2016-May-03 20:33N 49°13' W 006°06'  
Track history (hours):
 
Tides and Currents Weather Stations Pressure Air Temp Water Temp Dewpoint Dewpoint Depression Visibility Wind Speed Wind Dir Waves Ship Positions

CMA-CGM Fort Saint Pierre

Last reported at 2016-May-11 09:07 UTC. Time now 2016-May-31 02:05 UTC.
Position N 49°29' W 004°55'.
Warning: this ship's position is 19 days out of date.

Length 197 m; beam 30 m.

Type: Ship (hazmat cat A). MMSI: 226328000.

Date/timePositionNaut miles runAvg speedWind from/ knotsBaromVisibWave heightAir tempDewpointWater temp
2016-May-11 09:07N 49°29' W 004°55'1217.0
2016-May-11 08:26N 49°34' W 004°38'1314.4
2016-May-11 07:33N 49°38' W 004°20'1614.7
2016-May-11 06:27N 49°44' W 003°56'1415.8
2016-May-11 05:33N 49°49' W 003°36'1716.9
2016-May-11 04:33N 49°56' W 003°12'1717.4
2016-May-11 03:33N 50°02' W 002°47'5814.3
2016-May-10 23:31N 49°52' W 001°18'1212.0
2016-May-10 22:33N 49°47' W 001°02'1312.6
2016-May-10 21:33N 49°41' W 000°45'1414.0
2016-May-10 20:33N 49°36' W 000°25'1615.7
2016-May-10 19:34N 49°30' W 000°02'8 8.2
2016-May-10 18:33N 49°27' E 000°10'0 0.0
2016-May-10 17:33N 49°27' E 000°10'0 0.0
2016-May-10 16:33N 49°27' E 000°10'0 0.0
2016-May-10 15:33N 49°27' E 000°10'0 0.0
2016-May-10 14:33N 49°27' E 000°10'0 0.0
2016-May-10 13:33N 49°27' E 000°10'0 0.0
2016-May-10 12:33N 49°27' E 000°10'0 0.0
2016-May-10 11:33N 49°27' E 000°10'3 2.8
2016-May-10 10:33N 49°28' E 000°06'1211.7
2016-May-10 09:33N 49°33' W 000°11'1211.7
2016-May-10 08:33N 49°44' W 000°10'1312.6
2016-May-10 07:33N 49°57' W 000°08'1313.3
2016-May-10 06:33N 50°10' W 000°14'1313.2
2016-May-10 05:33N 50°23' W 000°10'1110.7
2016-May-10 04:33N 50°29' E 000°03'1313.1
2016-May-10 03:32N 50°33' E 000°23'2913.2
2016-May-10 01:22N 50°48' E 001°02'1113.0
2016-May-10 00:33N 50°54' E 001°15'1312.8
2016-May-09 23:34N 51°03' E 001°30'1313.1
2016-May-09 22:33N 51°12' E 001°44'1313.1
2016-May-09 21:33N 51°23' E 001°57'1414.3
2016-May-09 20:34N 51°21' E 002°20'2423.9
2016-May-09 19:33N 51°23' E 002°58'8 8.1
2016-May-09 18:33N 51°24' E 003°11'1616.0
2016-May-09 17:34N 51°26' E 003°36'1313.3
2016-May-09 16:33N 51°25' E 003°58'1010.4
2016-May-09 15:33N 51°22' E 004°14'4 4.2
2016-May-09 14:33N 51°18' E 004°16'0 0.0
2016-May-09 13:33N 51°18' E 004°16'0 0.0
2016-May-09 12:30N 51°18' E 004°16'0 0.0
2016-May-09 11:27N 51°18' E 004°16'0 0.0
2016-May-09 10:33N 51°18' E 004°16'0 0.0
2016-May-09 09:33N 51°18' E 004°16'0 0.0
2016-May-09 08:33N 51°18' E 004°16'0 0.0
2016-May-09 07:33N 51°18' E 004°16'0 0.0
2016-May-09 06:33N 51°18' E 004°16'0 0.0
2016-May-09 05:30N 51°18' E 004°16'0 0.0
2016-May-09 04:30N 51°18' E 004°16'0 0.0
2016-May-09 03:33N 51°18' E 004°16'1 1.0
2016-May-09 02:33N 51°19' E 004°16'8 7.7
2016-May-09 01:33N 51°22' E 004°05'8 8.4
2016-May-09 00:33N 51°21' E 003°52'1111.2
2016-May-08 23:33N 51°26' E 003°36'1212.2
2016-May-08 22:33N 51°24' E 003°16'1110.6
2016-May-08 21:33N 51°28' E 003°00'1717.0
2016-May-08 20:33N 51°43' E 003°12'8 7.5
2016-May-08 19:29N 51°51' E 003°16'4714.9
2016-May-08 16:21N 52°37' E 003°31'1416.6
2016-May-08 15:32N 52°47' E 003°45'2713.8
2016-May-08 13:33N 53°07' E 004°17'1413.3
2016-May-08 12:29N 53°18' E 004°30'1313.3
2016-May-08 11:28N 53°29' E 004°43'1313.6
2016-May-08 10:33N 53°34' E 005°03'1413.6
2016-May-08 09:33N 53°38' E 005°24'1313.1
2016-May-08 08:33N 53°42' E 005°45'1313.0
2016-May-08 07:33N 53°47' E 006°06'1313.1
2016-May-08 06:33N 53°50' E 006°27'1313.2
2016-May-08 05:34N 53°54' E 006°49'1313.4
2016-May-08 04:33N 53°57' E 007°11'1313.4
2016-May-08 03:33N 54°01' E 007°33'1313.2
2016-May-08 02:33N 54°02' E 007°55'1313.3
2016-May-08 01:33N 54°00' E 008°18'1515.0
2016-May-08 00:34N 53°54' E 008°41'1211.9
2016-May-07 23:33N 53°51' E 009°01'1010.4
2016-May-07 22:33N 53°51' E 009°18'1414.4
2016-May-07 21:34N 53°39' E 009°31'1212.4
2016-May-07 20:33N 53°33' E 009°49'4 3.8
2016-May-07 19:31N 53°32' E 009°56'0 0.0
2016-May-07 18:31N 53°32' E 009°56'0 0.0
2016-May-07 17:31N 53°32' E 009°56'0 0.0
2016-May-07 16:31N 53°32' E 009°56'0 0.0
2016-May-07 15:31N 53°32' E 009°56'0 0.0
2016-May-07 14:31N 53°32' E 009°56'0 0.0
2016-May-07 13:31N 53°32' E 009°56'0 0.0
2016-May-07 12:31N 53°32' E 009°56'0 0.0
2016-May-07 11:31N 53°32' E 009°56'0 0.0
2016-May-07 10:31N 53°32' E 009°56'0 0.0
2016-May-07 09:31N 53°32' E 009°56'0 0.0
2016-May-07 08:31N 53°32' E 009°56'0 0.0
2016-May-07 07:32N 53°32' E 009°56'0 0.0
2016-May-07 06:32N 53°32' E 009°56'0 0.0
2016-May-07 05:34N 53°32' E 009°56'4 4.4
2016-May-07 04:34N 53°33' E 009°49'10 9.5
2016-May-07 03:33N 53°37' E 009°34'1110.7
2016-May-07 02:34N 53°46' E 009°24'1212.1
2016-May-07 01:33N 53°53' E 009°07'1413.7
2016-May-07 00:33N 53°52' E 008°44'1515.0
2016-May-06 23:33N 53°59' E 008°22'1312.9
2016-May-06 22:33N 53°58' E 007°60'1111.2
2016-May-06 21:33N 53°56' E 007°41'1413.6
2016-May-06 20:34N 53°53' E 007°19'1414.5
2016-May-06 19:34N 53°50' E 006°55'1414.4
2016-May-06 18:34N 53°46' E 006°31'1514.6
2016-May-06 17:33N 53°42' E 006°07'1514.7
2016-May-06 16:33N 53°37' E 005°44'1514.6
2016-May-06 15:34N 53°33' E 005°20'1514.9
2016-May-06 14:33N 53°28' E 004°57'1413.6
2016-May-06 13:33N 53°20' E 004°39'1414.4
2016-May-06 12:33N 53°07' E 004°27'1414.5
2016-May-06 11:34N 52°54' E 004°17'1514.5
2016-May-06 10:33N 52°42' E 004°03'2814.2
2016-May-06 08:33N 52°14' E 003°53'1211.9
2016-May-06 07:33N 52°02' E 003°54'1414.0
2016-May-06 06:33N 51°56' E 004°14'8 8.1
2016-May-06 05:33N 51°54' E 004°26'0 0.2
2016-May-06 04:32N 51°54' E 004°26'0 0.0
2016-May-06 03:32N 51°54' E 004°26'0 0.0
2016-May-06 02:32N 51°54' E 004°26'0 0.0
2016-May-06 01:32N 51°54' E 004°26'0 0.0
2016-May-06 00:32N 51°54' E 004°26'0 0.0
2016-May-05 23:32N 51°54' E 004°26'0 0.0
2016-May-05 22:32N 51°54' E 004°26'0 0.0
2016-May-05 21:32N 51°54' E 004°26'0 0.0
2016-May-05 20:32N 51°54' E 004°26'0 0.0
2016-May-05 19:32N 51°54' E 004°26'0 0.0
2016-May-05 18:32N 51°54' E 004°26'0 0.0
2016-May-05 17:32N 51°54' E 004°26'0 0.0
2016-May-05 15:32N 51°54' E 004°26'0 0.0
2016-May-05 14:32N 51°54' E 004°26'0 0.0
2016-May-05 13:32N 51°54' E 004°26'0 0.0
2016-May-05 12:32N 51°54' E 004°26'0 0.0
2016-May-05 11:32N 51°54' E 004°26'0 0.0
2016-May-05 10:32N 51°54' E 004°26'0 0.0
2016-May-05 09:32N 51°54' E 004°26'0 0.0
2016-May-05 08:32N 51°54' E 004°26'0 0.0
2016-May-05 07:32N 51°54' E 004°26'0 0.0
2016-May-05 06:32N 51°54' E 004°26'0 0.0
2016-May-05 05:29N 51°54' E 004°26'0 0.0
2016-May-05 04:32N 51°54' E 004°26'0 0.2
2016-May-05 03:33N 51°54' E 004°26'6 6.3
2016-May-05 02:33N 51°54' E 004°16'1110.8
2016-May-05 01:33N 51°60' E 004°01'1212.2
2016-May-05 00:33N 51°59' E 003°41'1111.1
2016-May-04 23:33N 51°55' E 003°24'1212.0
2016-May-04 22:33N 51°52' E 003°05'1312.4
2016-May-04 21:28N 51°47' E 002°45'1112.5
2016-May-04 20:33N 51°40' E 002°31'1514.6
2016-May-04 19:34N 51°29' E 002°15'1615.9
2016-May-04 18:34N 51°18' E 001°57'1515.1
2016-May-04 17:34N 51°07' E 001°41'1514.6
2016-May-04 16:33N 50°55' E 001°26'1312.9
2016-May-04 15:34N 50°43' E 001°22'1413.5
2016-May-04 14:33N 50°33' E 001°07'1413.6
2016-May-04 13:31N 50°27' E 000°48'1414.0
2016-May-04 12:33N 50°23' E 000°27'1414.0
2016-May-04 11:33N 50°21' E 000°05'1414.2
2016-May-04 10:34N 50°18' W 000°16'1414.3
2016-May-04 09:33N 50°14' W 000°38'1816.0
2016-May-04 08:25N 50°10' W 001°05'1517.5
2016-May-04 07:33N 50°05' W 001°28'1818.4
2016-May-04 06:33N 49°60' W 001°55'2018.9
2016-May-04 05:31N 49°55' W 002°25'2018.2
2016-May-04 04:25N 49°49' W 002°55'1517.7
2016-May-04 03:34N 49°44' W 003°17'2117.4
2016-May-04 02:22N 49°37' W 003°47'3216.8
2016-May-04 00:29N 49°30' W 004°34'1916.3
2016-May-03 23:19N 49°24' W 005°02'1216.0
2016-May-03 22:33N 49°20' W 005°20'1615.5
2016-May-03 21:32N 49°16' W 005°43'1515.2
2016-May-03 20:33N 49°13' W 006°06'  

Dump ship's entire track history